Stations météo

réclame
Mon MeteoGroup
Tarbes/Ossun, France (7621): Température de l'air & dewpoint: 13.12.2018 15:00:00 - 19.12.2018 15:00:00 (CET)Tarbes/Ossun, France (7621): Température de l'air 5cm: 13.12.2018 15:00:00 - 19.12.2018 15:00:00 (CET)Tarbes/Ossun, France (7621): Température de l'air -20cm & Température de l'air -100cm: 13.12.2018 15:00:00 - 19.12.2018 15:00:00 (CET)Tarbes/Ossun, France (7621): Vitesse du vent & gusts: 13.12.2018 15:00:00 - 19.12.2018 15:00:00 (CET)Tarbes/Ossun, France (7621): Direction du vent: 13.12.2018 15:00:00 - 19.12.2018 15:00:00 (CET)Tarbes/Ossun, France (7621): reduced air pressure: 13.12.2018 15:00:00 - 19.12.2018 15:00:00 (CET)Tarbes/Ossun, France (7621): visibility: 13.12.2018 15:00:00 - 19.12.2018 15:00:00 (CET)Tarbes/Ossun, France (7621): Ensoleillement: 13.12.2018 15:00:00 - 19.12.2018 15:00:00 (CET)Tarbes/Ossun, France (7621): Quantités de précipitations: 13.12.2018 15:00:00 - 19.12.2018 15:00:00 (CET)
Date & Time tt [°C] td [°C] tt 5cm [°C] tt -20cm [°C] tt -100cm [°C] ff [km/h] ff [knt] fx [km/h] fx [knt] dd ppp [hPa] vv [km] sd [min] rr [mm]
19.12.2018 15:00:00 13,5 2,7 12,8 8,5 11,5 25 14 44 24 WNW 1018,2 46 60 0,0
19.12.2018 14:00:00 13,7 3,7 10,1 8,4 11,4 18 10 34 18 W 1018,0 51 30 0,0
19.12.2018 13:00:00 12,8 3,7 11,0 8,4 11,4 16 9 25 14 W 1018,3 60 60 0,0
19.12.2018 12:00:00 12,4 5,3 9,0 8,4 11,4 12 7 21 11 W 1018,5 44 60 0,0
19.12.2018 11:00:00 10,7 5,7 5,4 8,5 11,5 6 3 22 12 SSW 1018,6 - 60 0,0
19.12.2018 10:00:00 6,8 4,3 2,2 8,5 11,5 8 5 17 9 S 1018,5 37 60 0,0
19.12.2018 09:00:00 3,7 1,9 1,3 8,6 11,5 12 6 16 9 SSE 1018,5 38 8 0,0
19.12.2018 08:00:00 2,6 1,3 1,4 8,7 11,5 10 5 16 9 SSE 1019,1 32 0 0,0
19.12.2018 07:00:00 2,7 1,5 1,6 8,7 11,5 12 7 15 8 S 1019,2 45 0 0,0
19.12.2018 06:00:00 3,0 2,1 1,9 8,7 11,5 8 4 14 7 S 1018,8 36 0 0,0
19.12.2018 05:00:00 3,7 2,8 2,2 8,7 11,5 8 5 13 7 SSE 1019,1 31 0 0,0
19.12.2018 04:00:00 3,6 2,6 2,1 8,7 11,5 6 3 12 7 SW 1019,3 28 0 0,0
19.12.2018 03:00:00 4,3 3,3 3,7 8,8 11,5 2 1 5 3 SW 1019,5 20 0 0,0
19.12.2018 02:00:00 6,7 5,0 5,7 8,8 11,5 5 3 13 7 SSE 1019,0 17 0 0,0
19.12.2018 01:00:00 6,9 5,7 6,4 8,7 11,5 6 3 9 5 NNE 1019,0 17 0 0,0
19.12.2018 00:00:00 7,3 5,8 6,8 8,7 11,5 5 3 11 6 S 1018,6 14 0 0,0
18.12.2018 23:00:00 7,7 5,8 7,0 8,7 11,5 10 5 18 10 SSE 1018,2 14 0 0,0
18.12.2018 22:00:00 7,4 5,7 6,9 8,7 11,5 6 3 14 8 WSW 1017,8 15 0 0,0
18.12.2018 21:00:00 8,0 4,9 6,1 8,7 11,5 3 2 18 10 ESE 1016,4 33 0 0,0
18.12.2018 20:00:00 7,2 5,5 5,9 8,7 11,5 8 4 13 7 ESE 1016,5 14 0 0,0
18.12.2018 19:00:00 6,7 4,9 6,0 8,7 11,5 4 2 18 10 WSW 1016,7 19 0 0,0
18.12.2018 18:00:00 7,0 5,0 6,2 8,6 11,5 3 2 11 6 S 1015,6 28 0 0,0
18.12.2018 17:00:00 7,9 5,0 7,2 8,5 11,5 6 4 14 7 SSE 1015,4 37 0 0,0
18.12.2018 16:00:00 8,8 5,7 9,3 8,4 11,5 3 2 14 7 NE 1014,7 30 0 0,0
18.12.2018 15:00:00 9,8 5,6 11,2 8,4 11,5 2 1 13 7 NNE 1014,1 29 0 0,0
18.12.2018 14:00:00 9,8 4,4 11,5 8,4 11,6 3 2 12 7 E 1014,8 45 29 0,0
18.12.2018 13:00:00 8,4 4,4 8,6 8,3 11,5 4 2 8 5 N 1016,3 47 14 0,0
18.12.2018 12:00:00 7,5 3,0 8,0 8,4 11,5 6 3 10 6 N 1017,4 45 39 0,0
18.12.2018 11:00:00 5,7 2,7 3,6 8,5 11,5 4 2 8 5 SSE 1018,0 30 6 0,0
18.12.2018 10:00:00 2,2 0,9 1,3 8,5 11,5 6 3 13 7 WSW 1018,7 40 21 0,0
18.12.2018 09:00:00 2,0 0,4 0,7 8,7 11,5 5 3 10 5 SE 1018,8 52 8 0,0
18.12.2018 08:00:00 0,2 -1,1 0,1 8,7 11,5 7 4 11 6 SSW 1020,0 51 0 0,0
18.12.2018 07:00:00 0,3 -0,8 -0,1 8,8 11,5 6 3 12 6 S 1020,7 58 0 0,0
18.12.2018 06:00:00 0,9 -0,4 -0,3 8,9 11,6 9 5 18 10 SE 1021,7 51 0 0,0
18.12.2018 05:00:00 -0,2 -1,0 -0,1 9,0 11,5 5 3 17 9 SSW 1022,3 46 0 0,0
18.12.2018 04:00:00 0,2 -0,5 0,1 9,1 11,6 0 0 14 8 N 1022,4 41 0 0,0
18.12.2018 03:00:00 -0,3 -0,9 0,2 9,2 11,5 5 3 11 6 S 1024,1 40 0 0,0
18.12.2018 02:00:00 1,5 1,1 0,7 9,3 11,5 8 4 11 6 SE 1025,4 21 0 0,0
18.12.2018 01:00:00 0,8 0,2 1,2 9,4 11,6 4 2 8 4 S 1025,7 15 0 0,0
18.12.2018 00:00:00 1,8 1,4 2,1 9,5 11,6 3 2 8 4 WSW 1026,2 20 0 0,0
17.12.2018 23:00:00 1,5 0,8 2,0 9,5 11,6 5 3 7 4 SSW 1026,8 35 0 0,0
17.12.2018 22:00:00 2,0 0,8 1,8 9,5 11,6 0 0 8 4 N 1027,4 28 0 0,0
17.12.2018 21:00:00 4,6 3,1 2,7 9,6 11,6 6 3 17 9 ESE 1027,8 34 0 0,0
17.12.2018 20:00:00 5,6 3,1 3,0 9,6 11,6 9 5 18 10 SSE 1028,3 28 0 0,0
17.12.2018 19:00:00 6,1 3,9 2,9 9,6 11,6 9 5 15 8 SSE 1028,7 24 0 0,0
17.12.2018 18:00:00 6,1 5,2 3,1 9,5 11,6 5 3 11 6 ESE 1029,0 35 0 0,0
17.12.2018 17:00:00 9,2 5,2 6,8 9,5 11,6 5 3 9 5 SE 1028,6 20 42 0,0
17.12.2018 16:00:00 10,1 4,2 9,2 9,4 11,6 3 2 8 5 NNW 1028,4 53 16 0,0
17.12.2018 15:00:00 10,5 4,6 11,0 9,4 11,6 6 3 11 6 NE 1027,9 54 0 0,0
17.12.2018 14:00:00 10,7 4,2 10,7 9,3 11,6 6 4 19 11 WNW 1028,4 58 27 0,0
17.12.2018 13:00:00 11,0 4,7 11,3 9,3 11,5 15 8 22 12 W 1028,6 45 60 0,0
17.12.2018 12:00:00 10,5 5,9 7,8 9,3 11,6 4 2 20 11 S 1029,1 51 55 0,0
17.12.2018 11:00:00 7,9 5,9 7,2 9,4 11,6 11 6 17 9 SSW 1030,0 50 3 0,0
17.12.2018 10:00:00 7,4 5,4 6,0 9,4 11,6 12 7 22 12 WSW 1030,0 38 4 0,0
17.12.2018 09:00:00 5,6 4,9 4,0 9,5 11,6 5 3 20 11 W 1029,8 32 0 0,0
17.12.2018 08:00:00 4,8 3,6 4,0 9,5 11,6 10 6 18 10 S 1028,9 49 0 0,2
17.12.2018 07:00:00 5,3 4,6 4,9 9,6 11,6 9 5 16 9 S 1028,5 45 0 0,2
17.12.2018 06:00:00 6,2 5,3 5,6 9,6 11,6 14 8 24 13 NNW 1028,1 8 0 0,8
17.12.2018 05:00:00 6,3 4,9 5,7 9,7 11,6 9 5 25 14 SW 1027,4 17 0 1,4
17.12.2018 04:00:00 6,4 5,0 5,5 9,8 11,6 11 6 24 13 SW 1026,8 16 0 2,0
17.12.2018 03:00:00 6,2 4,4 5,3 9,8 11,6 13 7 35 19 SW 1026,1 19 0 0,2
17.12.2018 02:00:00 6,4 4,6 5,0 9,9 11,6 22 12 41 22 WSW 1026,2 19 0 1,8
17.12.2018 01:00:00 7,1 4,7 6,0 10,0 11,6 19 10 53 29 WNW 1025,6 4,1 0 2,0
17.12.2018 00:00:00 7,4 4,2 4,9 10,0 11,6 26 14 57 31 W 1024,5 10 0 0,4
16.12.2018 23:00:00 7,9 3,5 5,4 10,1 11,6 29 16 53 28 WSW 1023,1 55 0 0,4
16.12.2018 22:00:00 8,2 4,2 5,7 10,1 11,6 29 15 50 27 WSW 1022,3 51 0 0,0
16.12.2018 21:00:00 8,0 5,3 6,2 10,1 11,6 26 14 45 24 WSW 1021,6 19 0 0,2
16.12.2018 20:00:00 8,7 5,6 6,7 10,1 11,6 26 14 55 30 W 1020,6 53 0 0,4
16.12.2018 19:00:00 8,2 5,0 6,8 10,1 11,6 31 17 54 29 SW 1018,8 60 0 1,4
16.12.2018 18:00:00 8,2 6,8 7,9 10,1 11,6 11 6 22 12 SW 1017,2 51 0 0,0
16.12.2018 17:00:00 8,1 6,9 8,1 10,0 11,6 14 8 39 21 SW 1016,7 9 0 2,0
16.12.2018 16:00:00 8,7 7,1 8,4 10,0 11,6 37 20 71 38 NW 1016,0 5 23 0,6
16.12.2018 15:00:00 11,9 10,8 10,6 9,9 11,6 9 5 20 11 WSW 1012,6 20 17 2,6
16.12.2018 14:00:00 10,8 10,2 10,7 9,9 11,6 11 6 21 11 N 1012,8 5 0 0,8
16.12.2018 13:00:00 12,0 10,2 12,2 9,9 11,6 7 4 12 6 ESE 1011,8 35 0 0,0
16.12.2018 12:00:00 11,6 10,2 10,2 9,9 11,6 8 4 18 10 S 1013,2 45 0 0,0
16.12.2018 11:00:00 10,1 9,5 9,5 9,9 11,6 12 7 19 10 SE 1014,6 44 0 0,8
16.12.2018 10:00:00 9,5 9,2 9,4 9,8 11,6 14 8 22 12 SSE 1015,9 18 0 1,2
16.12.2018 09:00:00 9,7 9,2 9,6 9,9 11,6 3 2 13 7 E 1016,6 3,1 0 0,6
16.12.2018 08:00:00 9,9 9,4 9,6 9,8 11,6 9 5 16 8 NNE 1016,3 8 0 0,2
16.12.2018 07:00:00 9,8 9,2 9,3 9,8 11,6 7 4 11 6 NNE 1016,6 7 0 0,2
16.12.2018 06:00:00 10,0 9,1 9,3 9,8 11,6 3 2 6 4 SE 1016,3 24 0 0,2
16.12.2018 05:00:00 10,3 9,1 9,3 9,8 11,6 2 1 11 6 ESE 1016,9 20 0 0,2
16.12.2018 04:00:00 10,4 8,8 8,7 9,8 11,6 3 2 11 6 SSE 1017,7 38 0 0,0
16.12.2018 03:00:00 10,7 8,6 8,8 9,8 11,6 4 2 16 9 NE 1017,7 41 0 0,0
16.12.2018 02:00:00 11,2 9,1 9,5 9,8 11,6 4 2 15 8 S 1017,9 41 0 0,0
16.12.2018 01:00:00 10,7 9,6 9,3 9,8 11,6 8 4 12 6 SSE 1017,6 25 0 0,0
16.12.2018 00:00:00 10,5 9,6 9,3 9,8 11,6 7 4 13 7 SE 1017,5 27 0 0,0
15.12.2018 23:00:00 10,1 9,5 8,7 9,8 11,6 5 3 11 6 SSE 1017,3 28 0 0,0
15.12.2018 22:00:00 9,4 8,6 7,8 9,8 11,7 8 4 14 8 SSE 1016,6 11 0 0,0
15.12.2018 21:00:00 9,4 8,3 7,9 9,7 11,7 8 4 17 9 S 1016,7 40 0 0,0
15.12.2018 20:00:00 9,1 8,6 - - - 9 5 15 8 S 1017,0 10 - 0,0
15.12.2018 19:00:00 9,1 8,0 7,5 9,6 11,7 6 3 10 6 SSW 1017,2 5 0 0,0
15.12.2018 18:00:00 11,8 9,2 9,0 9,5 11,7 4 2 13 7 SSE 1017,0 40 0 0,0
15.12.2018 17:00:00 13,6 11,1 11,4 9,4 11,7 5 3 9 5 E 1017,0 30 0 0,0
15.12.2018 16:00:00 15,1 11,5 13,4 9,3 11,7 3 1 11 6 NNE 1017,1 56 1 0,0
15.12.2018 15:00:00 15,4 10,2 14,5 9,2 11,7 4 2 11 6 ENE 1017,0 59 5 0,0
15.12.2018 14:00:00 15,4 10,0 13,7 9,1 11,7 6 3 18 10 SW 1017,6 58 17 0,0
15.12.2018 13:00:00 14,3 6,9 13,0 9,1 11,7 2 1 7 4 W 1019,0 19 2 0,0
15.12.2018 12:00:00 13,2 6,8 10,9 9,1 11,7 4 2 10 6 SSE 1020,0 52 33 0,0
15.12.2018 11:00:00 9,9 6,4 8,4 9,1 11,7 8 4 11 6 SE 1020,9 50 12 0,0
15.12.2018 10:00:00 7,7 6,0 6,5 9,2 11,7 9 5 13 7 S 1021,2 59 7 0,0
15.12.2018 09:00:00 6,3 4,9 6,3 9,2 11,7 8 5 11 6 SSE 1021,3 20 0 0,0
15.12.2018 08:00:00 6,3 4,9 6,0 9,3 11,7 8 4 13 7 S 1021,4 60 0 0,0
15.12.2018 07:00:00 5,6 4,7 4,8 9,3 11,7 6 3 13 7 S 1021,8 60 0 0,0
15.12.2018 06:00:00 4,5 3,9 2,5 9,4 11,7 11 6 14 8 S 1022,0 50 0 0,0
15.12.2018 05:00:00 3,6 3,0 2,7 9,4 11,7 8 4 17 9 S 1022,8 46 0 0,0
15.12.2018 04:00:00 3,6 3,2 2,5 9,5 11,7 11 6 19 10 S 1023,4 26 0 0,0
15.12.2018 03:00:00 3,1 2,7 2,5 9,5 11,7 9 5 12 7 S 1023,6 0,8 0 0,0
15.12.2018 02:00:00 5,1 4,1 3,6 9,5 11,7 5 3 8 5 S 1023,3 0,5 0 0,0
15.12.2018 01:00:00 7,4 6,8 7,3 9,5 11,7 7 4 14 8 SW 1023,6 10 0 0,2
15.12.2018 00:00:00 7,4 6,7 7,2 9,5 11,7 9 5 13 7 S 1024,0 18 0 0,0
14.12.2018 23:00:00 7,5 6,6 7,2 9,5 11,7 11 6 15 8 SSW 1023,9 32 0 0,0
14.12.2018 22:00:00 7,6 6,7 6,7 9,5 11,7 5 3 9 5 SSE 1023,9 29 0 0,0
14.12.2018 21:00:00 7,2 6,1 6,6 9,5 11,8 8 5 19 10 SW 1024,2 19 0 0,0
14.12.2018 20:00:00 8,4 7,0 7,6 9,5 11,7 11 6 23 13 WSW 1023,7 26 0 0,0
14.12.2018 19:00:00 8,8 6,6 7,7 9,5 11,8 15 8 23 13 W 1023,0 15 0 0,0
14.12.2018 18:00:00 8,8 6,1 7,7 9,4 11,7 12 6 18 10 SW 1022,2 27 0 0,0
14.12.2018 17:00:00 9,2 6,3 8,3 9,4 11,8 9 5 34 18 W 1022,5 40 0 0,0
14.12.2018 16:00:00 9,1 6,9 8,6 9,4 11,8 20 11 31 17 WSW 1022,0 42 0 0,0
14.12.2018 15:00:00 9,2 7,3 8,7 9,3 11,8 19 10 32 17 WSW 1021,1 38 0 0,4
14.12.2018 14:00:00 9,5 7,1 8,7 9,3 11,8 17 9 33 18 WNW 1020,1 35 0 0,0
14.12.2018 13:00:00 9,3 6,6 8,6 9,3 11,8 15 8 32 17 W 1020,0 20 0 0,0
14.12.2018 12:00:00 9,9 7,0 9,0 9,3 11,8 20 11 36 19 WSW 1019,6 54 17 0,0
14.12.2018 11:00:00 10,1 7,9 7,6 9,2 11,8 14 7 27 15 WSW 1019,2 17 27 0,0
14.12.2018 10:00:00 8,8 7,6 7,5 9,2 11,7 17 9 32 17 WSW 1018,5 36 0 0,0
14.12.2018 09:00:00 8,3 7,4 7,6 9,2 11,8 14 8 27 15 W 1017,5 35 0 0,0
14.12.2018 08:00:00 8,5 7,6 7,9 9,2 11,8 19 10 32 17 W 1016,2 51 0 0,4
14.12.2018 07:00:00 8,4 7,5 - - - 16 9 29 16 WSW 1015,3 16 - -
14.12.2018 06:00:00 8,4 7,6 7,9 9,3 11,8 16 9 31 17 WSW 1014,7 2,7 0 1,6
14.12.2018 05:00:00 8,4 7,6 7,9 9,2 11,8 13 7 26 14 W 1014,4 6 0 0,6
14.12.2018 04:00:00 8,4 7,3 7,7 9,3 11,9 15 8 31 17 W 1014,6 19 0 0,0
14.12.2018 03:00:00 8,4 7,3 7,7 9,2 11,8 17 9 29 16 W 1014,1 30 0 0,0
14.12.2018 02:00:00 8,2 7,1 7,7 9,2 11,9 20 11 37 20 W 1013,4 20 0 0,7
14.12.2018 01:00:00 8,4 7,6 7,7 9,3 11,8 23 13 40 21 W 1012,8 5 0 1,2
14.12.2018 00:00:00 8,3 7,2 7,7 9,3 11,9 20 11 39 21 WSW 1012,3 14 0 0,6
13.12.2018 23:00:00 8,2 7,1 7,6 9,3 11,9 16 9 33 18 WSW 1011,7 11 0 1,0
13.12.2018 22:00:00 8,2 7,1 7,5 9,3 11,9 21 12 50 27 WSW 1011,2 12 0 1,0
13.12.2018 21:00:00 8,1 6,9 7,0 9,3 11,9 28 15 52 28 W 1010,5 10 0 2,2
13.12.2018 20:00:00 7,7 6,3 7,1 9,3 11,9 30 16 46 25 WSW 1009,6 9 0 2,0
13.12.2018 19:00:00 7,6 6,5 7,1 9,4 11,9 30 16 49 26 WSW 1009,0 8 0 2,6
13.12.2018 18:00:00 7,8 6,6 7,2 9,3 11,9 29 16 54 29 WSW 1008,2 8 0 2,9
13.12.2018 17:00:00 7,9 6,2 7,2 9,3 12,0 31 17 56 30 WSW 1007,0 8 0 2,6
13.12.2018 16:00:00 8,8 7,1 8,2 9,3 11,9 33 18 52 28 WSW 1005,5 8 0 2,0
13.12.2018 15:00:00 8,7 8,2 9,3 9,3 11,9 8 5 17 9 WSW 1005,4 6 0 1,6

tt = Température de l'air
td = dewpoint
tt 5cm = Température de l'air 5cm
tt -20cm = Température de l'air -20cm
tt -100cm = Température de l'air -100cm
ff = Vitesse du vent
fx = gusts
dd = Direction du vent
ppp = reduced air pressure
vv = visibility
sd = Ensoleillement
rr = Quantités de précipitations

stations d'obs. à proximité